Regional Weather Roundup
Issued by NWS Charleston, WV

Home | Current Version | Previous Version | Graphics & Text | Print | Product List | Glossary On
Versions: 1 2 3 4 5 6 7 8 9 10 11 12 13 14 15 16 17 18 19 20 21 22 23 24 25 26 27 28 29 30 31 32 33 34 35 36 37 38 39 40 41 42 43 44 45 46 47 48 49 50
000
ASUS41 KRLX 311510
RWRRLX
West Virginia Regional Weather Roundup
National Weather Service Charleston WV
1000 AM EST SAT JAN 31 2015

Note: "fair" indicates few or no clouds below 12,000 feet with no
significant weather and/or obstructions to visibility.

WVZ003-311600-
Northern Panhandle of West Virginia

CITY           SKY/WX    TMP DP  RH WIND       PRES   REMARKS
WHEELING       SUNNY     15   8  73 SW7       30.35S WCI   5
$$

WVZ009-311600-
Northwest West Virginia

CITY           SKY/WX    TMP DP  RH WIND       PRES   REMARKS
PARKERSBURG    SUNNY     20  12  71 S9        30.42F WCI   9
$$

WVZ006-311600-
Western West Virginia

CITY           SKY/WX    TMP DP  RH WIND       PRES   REMARKS
HUNTINGTON     SUNNY     23  17  78 S5        30.41R
$$

WVZ015-311600-
West Central West Virginia

CITY           SKY/WX    TMP DP  RH WIND       PRES   REMARKS
CHARLESTON     MOSUNNY   22  16  78 CALM      30.41R
$$

WVZ022-031-311600-
North Central West Virginia

CITY           SKY/WX    TMP DP  RH WIND       PRES   REMARKS
CLARKSBURG     SUNNY     17  11  77 SW5       30.38S WCI  10
MORGANTOWN     SUNNY     17   7  64 VRB6      30.38R WCI   9
$$

WVZ025-035-042-045-311600-
Southern West Virginia

CITY           SKY/WX    TMP DP  RH WIND       PRES   REMARKS
BECKLEY        SUNNY     18  10  71 SW6       30.30R WCI  10
LOGAN            N/A     23  16  74 CALM      30.36R
BLUEFIELD      SUNNY     22  11  62 W7        30.28R
LEWISBURG      SUNNY     22  10  60 SW8       30.28S
$$

WVZ047-311600-
Northern Mountains of West Virginia

CITY           SKY/WX    TMP DP  RH WIND       PRES   REMARKS
ELKINS         SUNNY     14   7  73 CALM      30.32S
$$

WVZ052-311600-
Eastern Panhandle of West Virginia

CITY           SKY/WX    TMP DP  RH WIND       PRES   REMARKS
MARTINSBURG    SUNNY     21   3  45 NW14      30.34S WCI   8
PETERSBURG     SUNNY     22   3  44 CALM      30.33S
$$


USA.gov is the U.S. government's official web portal to all federal, state and local government web resources and services.